TimeMST,TemperatureF,Dew PointF,Humidity,Sea Level PressureIn,VisibilityMPH,Wind Direction,Wind SpeedMPH,Gust SpeedMPH,PrecipitationIn,Events,Conditions,WindDirDegrees,DateUTC
12:53 AM,19.0,5.0,54,29.98,10.0,WNW,8.1,-,N/A,,Mostly Cloudy,290,2012-12-11 07:53:00
1:53 AM,19.0,3.9,52,29.98,10.0,WNW,9.2,-,N/A,,Clear,300,2012-12-11 08:53:00
2:53 AM,19.0,5.0,54,29.95,10.0,SW,9.2,-,N/A,,Mostly Cloudy,230,2012-12-11 09:53:00
3:53 AM,23.0,3.9,44,29.94,10.0,SW,5.8,-,N/A,,Mostly Cloudy,220,2012-12-11 10:53:00
4:53 AM,26.1,5.0,41,29.91,10.0,South,6.9,-,N/A,,Overcast,180,2012-12-11 11:53:00
5:53 AM,27.0,5.0,39,29.90,10.0,South,4.6,-,N/A,,Overcast,180,2012-12-11 12:53:00
6:53 AM,27.0,5.0,39,29.87,10.0,Calm,Calm,-,N/A,,Overcast,0,2012-12-11 13:53:00
7:53 AM,25.0,7.0,46,29.86,10.0,South,3.5,-,N/A,,Overcast,170,2012-12-11 14:53:00
8:53 AM,28.0,9.0,45,29.83,10.0,South,6.9,-,N/A,,Clear,170,2012-12-11 15:53:00
9:53 AM,33.1,10.0,38,29.78,10.0,South,15.0,-,N/A,,Clear,180,2012-12-11 16:53:00
10:53 AM,35.1,10.9,37,29.73,10.0,SSE,18.4,-,N/A,,Clear,160,2012-12-11 17:53:00
11:53 AM,35.1,12.9,40,29.71,10.0,South,12.7,-,N/A,,Clear,170,2012-12-11 18:53:00
12:53 PM,37.0,15.1,41,29.69,10.0,South,9.2,-,N/A,,Scattered Clouds,170,2012-12-11 19:53:00
1:53 PM,39.9,15.1,36,29.64,10.0,South,11.5,-,N/A,,Clear,170,2012-12-11 20:53:00
2:53 PM,41.0,14.0,33,29.62,10.0,South,11.5,-,N/A,,Clear,180,2012-12-11 21:53:00
3:53 PM,39.9,14.0,35,29.61,10.0,South,10.4,-,N/A,,Clear,170,2012-12-11 22:53:00
4:53 PM,30.9,14.0,50,29.63,10.0,SW,5.8,-,N/A,,Clear,220,2012-12-11 23:53:00
5:53 PM,35.1,15.1,44,29.61,10.0,SW,3.5,-,N/A,,Scattered Clouds,220,2012-12-12 00:53:00
6:53 PM,35.1,16.0,46,29.61,10.0,Calm,Calm,-,N/A,,Overcast,0,2012-12-12 01:53:00
7:53 PM,37.0,15.1,41,29.60,10.0,West,4.6,-,N/A,,Mostly Cloudy,260,2012-12-12 02:53:00
8:53 PM,37.9,17.1,43,29.59,10.0,NNW,6.9,-,N/A,,Overcast,340,2012-12-12 03:53:00
9:53 PM,37.0,17.1,44,29.58,10.0,SW,5.8,-,N/A,,Overcast,230,2012-12-12 04:53:00
10:53 PM,41.0,16.0,36,29.56,10.0,South,5.8,-,N/A,,Overcast,190,2012-12-12 05:53:00
11:53 PM,33.1,18.0,54,29.58,10.0,Calm,Calm,-,N/A,,Partly Cloudy,0,2012-12-12 06:53:00